Вернуться в каталог

OPS 4682 DEB

АктивенPO
NORAD 19964·DEBRIS·🇺🇸 United States

Запущен Apr 3, 1965 с Vandenberg Space Force Base

Loading…

Ближайшие Пролёты (ближайшие 24 часа)

TLE

СвежийSource: Space-Track

Эпоха: Sep 12, 2026, 08:05 UTC

1 19964U 65027BA  26255.33708436  .00000677  00000-0  23180-2 0  9999
2 19964  90.2721  19.2170 0016049 311.2291  75.7420 12.97099833563360

Отслеживайте OPS 4682 DEB в реальном времени с AllMySat

Download on the App Store